Flag for U.S.A. Weather past 2 weeks in Citrus Heights, California, U.S.A.

Now
79 °F

Sunny.


Feels Like: 80 °F
Forecast: 64 / 93 °F
Wind: 10 mph from Southwest

Location: Mather Field

Current Time: Jul 4, 2015 at 11:47:37 PM

Latest Report: Jul 4, 2015 at 8:50 PM


Visibility: 10 mi

Pressure: 29.75 "Hg

Humidity: 48%

Dew point: 57 °F

Location of Citrus HeightsLocation

Historic Weather in Citrus Heights — Graph

°F

Citrus Heights temperature yesterday

Maximum temperature yesterday: 99 °F (at 5:47 PM)
Minimum temperature yesterday: 66 °F (at 6:50 AM)
Average temperature yesterday: 79 °F

Past Weeks' High & Low Weather Summary

 TemperatureHumidityPressure
High106 °F (Jun 30, 5:45 PM)94% (Jun 29, 4:50 AM)30.02 "Hg (Jun 29, 4:50 AM)
Low50 °F (Jun 22, 4:45 AM)13% (Jun 20, 5:50 PM)29.71 "Hg (Jul 4, 5:50 PM)
Average80 °F41%29.87 "Hg
* Reported Jun 19 8:58 PM — Jul 4 8:50 PM, Citrus Heights, Weather by CustomWeather, © 2015

Note: Actual official high and low records may vary slightly from our data, if they occured in-between our weather recording intervals... More about our weather records

Advertising

Citrus Heights weather history for previous 24 hours

 ConditionsComfort  
Time TempWeatherWind HumidityBarometerVisibility
8:50 PM
Sat, Jul 4
79 °FSunny.10 mph48%29.75 "Hg10 mi
7:58 PM82 °FSunny.12 mph42%29.73 "Hg10 mi
6:58 PM91 °FSunny.14 mph34%29.71 "Hg10 mi
5:50 PM99 °FSunny.9 mph27%29.71 "Hg10 mi
3:45 PM100 °FScattered clouds.12 mph25%29.72 "Hg10 mi
1:58 PM97 °FSunny.8 mph28%29.76 "Hg10 mi
12:55 PM91 °FPassing clouds.5 mph32%29.78 "Hg10 mi
11:45 AM86 °FScattered clouds.7 mph40%29.79 "Hg10 mi
10:45 AM81 °FScattered clouds.5 mph45%29.81 "Hg10 mi
9:45 AM75 °FScattered clouds.5 mph54%29.82 "Hg10 mi
8:45 AM68 °FScattered clouds.3 mph69%29.83 "Hg10 mi
7:45 AM64 °FScattered clouds.8 mph78%29.83 "Hg10 mi
6:45 AM63 °FPassing clouds.5 mph83%29.82 "Hg10 mi
5:45 AM64 °FPassing clouds.6 mph78%29.82 "Hg10 mi
4:45 AM64 °FPassing clouds.5 mph78%29.81 "Hg10 mi
3:45 AM66 °FPassing clouds.8 mph73%29.80 "Hg10 mi
2:45 AM66 °FClear.3 mph68%29.81 "Hg10 mi
Weather by CustomWeather, © 2015

See weather overviewHow to use our weather pages